Simultaneous Nadir Overpasses (SNOs) Predictions

Prediction of SNOs between GOES-16 and AQUA Satellite Orbit:

Table of predicted SNOs for the next 14.0 days since TLE Epoch: 6/6/2020
Index Date Time (GOES-16) GOES-16 Lat,Lon AQUA Lat,Lon Distance(km) Time Diff (sec)
1 06/07/2020 06:23:34 -0.00, -75.16 -0.61, -72.39 314.81 80
2 06/07/2020 18:44:58 0.00, -75.16 -0.53, -77.58 275.56 80
3 06/09/2020 18:35:27 0.01, -75.16 0.12, -74.62 60.89 80
4 06/11/2020 18:23:16 0.01, -75.17 0.77, -71.67 398.27 80
5 06/12/2020 06:44:31 -0.00, -75.17 0.35, -76.82 187.49 80
6 06/14/2020 06:29:40 -0.00, -75.19 -0.30, -73.87 150.79 80
7 06/14/2020 18:51:04 0.00, -75.20 -0.82, -79.06 439.14 80
8 06/16/2020 06:17:29 -0.00, -75.22 -0.95, -70.92 489.66 80
9 06/16/2020 18:38:53 0.00, -75.22 -0.16, -76.11 100.09 80
10 06/18/2020 18:29:21 0.00, -75.25 0.44, -73.15 239.43 80
11 06/19/2020 06:50:37 -0.00, -75.27 0.64, -78.31 345.64 80




NCC Satellite Simultaneous Nadir Overpasses (SNOs) Prediction Service
